Location: Goll?ig?dem
(16.6773°N, 80.7332°E)
Time: 19:18:27
(UTC+00:00)

Cosmos 489 Rocket - Pass Details

Date: 19 May 2025
Orbit: 952 x 982 km, 74.0° (Epoch: 23 June)

Event Time Altitude Azimuth Distance (km) Brightness Sun altitude
Rises 22:17:06 0° 344° (NNW) 3,625 7.7 -24.0°
Reaches altitude 10° 22:19:38 10° 343° (NNW) 2,676 6.9 -23.5°
Maximum altitude 22:25:48 77° 258° (WSW) 975 4.3 -22.2°
Drops below altitude 10° 22:31:57 10° 172° (S) 2,669 6.6 -21.0°
Sets 22:34:28 0° 171° (S) 3,615 7.3 -20.4°
